#timestamp,LO_Frequency,Hit,StdDev 
1507611615.2,286047000.5,N
1507611635.0,286046999.8,N
1507611635.9,286046999.8,N
1507611655.8,286047002.4,N
1507611675.6,286046999.7,N
1507611695.4,286047001.0,N
1507611715.3,286046998.2,N
1507611735.1,286047002.4,N
1507611755.9,286047001.2,N
1507611775.7,286047001.2,N
1507611795.5,286046998.2,N
1507611815.4,286047000.5,N
1507611835.2,286047000.2,N
1507611855.0,286047001.6,N
1507611855.9,286047001.6,N
1507611875.8,286047001.5,N
1507611895.6,286047002.0,N
1507611915.5,286047002.0,N
1507611935.3,286047002.0,N
1507611955.1,286047002.1,N
1507611975.9,286047000.8,N
1507611995.7,286047000.7,N
1507612015.5,286047000.8,N
1507612035.4,286047001.2,N
1507612055.2,286046999.9,N
1507612075.1,286047000.1,N
1507612076.0,286047000.1,N
1507612095.8,286047000.5,N
1507612115.6,286046999.9,N
1507612135.5,286047000.6,N
1507612155.3,286046999.4,N
1507612175.2,286046999.3,N
1507612195.9,286046999.6,N
1507612215.7,286046996.7,Y
1507612235.6,286046998.0,P
1507612255.4,286046995.1,P
1507612275.2,286046995.3,N
1507612295.1,286046997.3,N
1507612296.0,286046997.3,N
1507612315.8,286046997.1,N
1507612335.7,286046999.1,N
1507612355.5,286046999.0,N
1507612375.3,286046996.9,N
1507612395.2,286046997.5,N
1507612415.0,286046997.2,N
1507612415.9,286046997.2,N
1507612435.8,286046997.7,N
1507612455.6,286046999.2,N
1507612475.4,286046996.9,N
1507612495.3,286046999.1,N
1507612515.1,286046998.6,N
1507612535.9,286046998.6,N
1507612555.7,286046999.5,N
1507612575.5,286046996.5,N
1507612595.4,286046997.2,N
1507612615.2,286046996.6,N
1507612635.1,286046998.8,N
1507612636.0,286046998.8,N
1507612655.8,286046996.5,N
1507612675.6,286046995.1,Y
1507612695.5,286046998.8,P
1507612715.3,286047001.2,N
1507612735.1,286046999.4,N
1507612755.9,286046998.3,N
1507612775.7,286046998.8,N
1507612795.6,286046999.1,N
1507612815.4,286046999.4,N
1507612835.2,286046999.1,N
1507612855.1,286047000.0,N
1507612856.0,286047000.0,N
1507612875.8,286047000.5,N
1507612895.6,286046999.2,N
1507612915.5,286046996.9,Y
1507612935.3,286046998.6,P
1507612955.2,286046999.4,N
1507612975.9,286046999.2,N
1507612995.7,286046996.7,Y
1507613015.6,286046996.8,P
1507613035.4,286046999.6,N
1507613055.3,286046997.0,N
1507613075.1,286046997.4,N
1507613076.0,286046997.4,N
1507613095.8,286046994.9,Y
1507613115.7,286046997.4,P
1507613135.5,286046996.9,P
1507613155.4,286046996.5,P
1507613175.2,286046997.2,Y
1507613195.0,286047000.2,P
1507613195.9,286047000.2,N
1507613215.8,286047000.6,N
1507613235.6,286046999.7,N
1507613255.4,286047002.7,N
1507613275.3,286047002.8,N
1507613295.1,286047002.3,N
1507613315.9,286047002.2,N
1507613335.7,286047000.9,N
1507613355.5,286046998.6,N
1507613375.4,286047000.2,N
1507613395.2,286047000.1,N
1507613415.0,286047000.6,N
1507613416.0,286047000.6,N
1507613435.8,286047000.5,N
1507613455.6,286046999.7,N
1507613475.5,286047002.1,N
1507613495.3,286046999.7,N
1507613515.1,286047000.1,N
1507613535.9,286047002.8,N
1507613555.7,286047001.9,N
1507613575.6,286047002.4,N
1507613595.4,286047002.6,N
1507613615.2,286047002.1,N
1507613635.1,286047002.7,N
1507613636.0,286047002.7,N
1507613655.8,286047002.7,N
1507613675.6,286047002.1,N
1507613695.5,286047002.1,N
1507613715.3,286047004.4,Y
1507613735.2,286047001.5,P
1507613755.9,286047002.7,P
1507613775.7,286046999.8,N
1507613795.6,286047002.6,N
1507613815.4,286047001.7,N
1507613835.2,286047002.8,N
1507613855.1,286047002.6,N
1507613856.0,286047002.6,N
1507613875.8,286047002.3,N
1507613895.7,286047002.7,N
1507613915.5,286046999.7,N
1507613935.3,286047002.5,N
1507613955.2,286047000.2,N
1507613975.9,286047000.2,N
1507613995.7,286046998.6,N
1507614015.6,286046996.6,N
1507614035.4,286046997.5,N
1507614055.2,286046995.1,N
1507614075.1,286046997.6,N
1507614076.0,286046997.6,N
1507614095.8,286046998.0,N
1507614115.7,286046995.4,N
1507614135.5,286046995.4,N
1507614155.3,286046997.2,N
1507614175.2,286046996.9,N
1507614195.0,286046999.3,N
1507614195.9,286046999.3,N
1507614215.8,286046996.5,N
1507614235.6,286046998.4,N
1507614255.4,286046997.0,N
1507614275.3,286046997.7,N
1507614295.1,286046996.8,N
1507614315.8,286046999.4,N
1507614335.7,286046996.6,N
1507614355.5,286046998.9,N
1507614375.4,286046998.6,N
1507614395.2,286046999.1,N
1507614415.0,286046998.3,N
1507614415.9,286046998.3,N
1507614435.8,286046997.9,N
1507614455.6,286046999.3,N
1507614475.4,286046997.7,N
1507614495.3,286046997.8,N
1507614515.1,286046999.3,N
1507614535.9,286046999.0,N
1507614555.7,286046998.4,N
1507614575.5,286046998.1,N
1507614595.4,286046999.0,N
1507614615.2,286046999.3,N
1507614635.0,286046999.0,N
1507614635.9,286046999.0,N
1507614655.8,286046998.3,N
1507614675.6,286046999.5,N
1507614695.5,286046998.1,N
1507614715.3,286047000.4,N
1507614735.1,286046998.6,N
1507614755.9,286046998.5,N
1507614775.7,286046998.3,N
1507614795.5,286047000.9,N
1507614815.4,286046999.0,N
1507614835.2,286047001.2,N
1507614855.1,286046998.2,N
1507614856.0,286046998.2,N
1507614875.8,286047000.1,N
1507614895.6,286047002.5,N
1507614915.5,286046999.7,N
1507614935.3,286047002.8,N
1507614955.2,286047000.1,N
1507614975.9,286047000.2,N
1507614995.7,286047000.5,N
1507615015.6,286047001.0,N
1507615035.4,286047001.2,N
1507615055.2,286047000.9,N
1507615075.1,286046998.5,N
1507615076.0,286046998.5,N
1507615095.8,286047000.3,N
1507615115.7,286046999.0,N
1507615135.5,286047000.6,N
1507615155.3,286047000.6,N
1507615175.2,286047000.8,N
1507615195.0,286046998.8,N
1507615195.9,286046998.8,N
